QPF
0.00 0.00 0.00 0.00 0.00 0.00 0.00 0.00 0.00 0.00 0.00 0.00 0.00 0.00 0.00 0.00 0.00 0.00 0.00 0.00 0.00 0.00 0.00 0.00 0.00 0.00 0.00 0.00 0.00 0.00 0.00 0.00 0.00 0.02 0.04 0.04 0.02 0.02 0.02 0.04 0.01 0.00 0.00 0.00
0.00 0.00 0.00 0.00 0.00 0.00 0.00 0.00 0.00 0.00 0.00 0.00 0.00 0.00 0.00 0.00 0.00 0.00 0.00 0.00 0.00 0.00 0.00 0.00 0.00 0.00 0.00 0.00 0.00 0.00 0.00 0.00 0.01 0.01 0.01 0.01 0.01 0.00 0.01 0.05 0.01 0.00 0.00 0.00
0.00 0.00 0.00 0.00 0.00 0.00 0.00 0.00 0.00 0.00 0.00 0.00 0.00 0.00 0.00 0.00 0.00 0.00 0.00 0.00 0.00 0.00 0.00 0.00 0.00 0.00 0.00 0.00 0.00 0.00 0.00 0.00 0.00 0.01 0.04 0.02 0.00 0.00 0.00 0.00 0.00 0.01 0.01 0.05
0.00 0.00 0.00 0.00 0.00 0.00 0.00 0.00 0.00 0.00 0.00 0.00 0.00 0.00 0.00 0.00 0.00 0.00 0.00 0.00 0.00 0.00 0.00 0.00 0.00 0.00 0.00 0.00 0.00 0.00 0.00 0.00 0.00 0.00 0.01 0.00 0.00 0.00 0.00 0.00 0.00 0.02 0.03 0.08
0.00 0.00 0.00 0.00 0.00 0.00 0.00 0.00 0.00 0.00 0.00 0.00 0.00 0.00 0.00 0.00 0.00 0.00 0.00 0.00 0.00 0.00 0.00 0.00 0.00 0.00 0.00 0.00 0.00 0.00 0.00 0.00 0.00 0.00 0.00 0.00 0.00 0.00 0.00 0.00 0.01 0.01 0.01 0.03
0.00 0.00 0.00 0.00 0.00 0.00 0.00 0.00 0.00 0.00 0.00 0.00 0.00 0.00 0.00 0.00 0.00 0.00 0.00 0.00 0.00 0.00 0.00 0.00 0.00 0.00 0.00 0.00 0.00 0.00 0.00 0.00 0.00 0.00 0.00 0.00 0.00 0.00 0.00 0.00 0.01 0.03 0.03 0.03
0.00 0.00 0.00 0.00 0.00 0.00 0.00 0.00 0.00 0.00 0.00 0.00 0.00 0.00 0.00 0.00 0.00 0.00 0.00 0.00 0.00 0.00 0.00 0.00 0.00 0.00 0.00 0.00 0.00 0.00 0.00 0.00 0.00 0.00 0.00 0.00 0.00 0.00 0.00 0.00 0.00 0.03 0.05 0.04
0.00 0.00 0.00 0.00 0.00 0.00 0.00 0.00 0.00 0.00 0.00 0.00 0.00 0.00 0.00 0.00 0.00 0.00 0.00 0.00 0.00 0.00 0.00 0.00 0.00 0.00 0.00 0.00 0.01 0.00 0.00 0.00 0.00 0.00 0.00 0.00 0.00 0.00 0.00 0.00 0.00 0.01 0.02 0.02
0.00 0.00 0.00 0.00 0.00 0.00 0.00 0.00 0.00 0.00 0.00 0.00 0.00 0.00 0.00 0.00 0.00 0.00 0.00 0.00 0.00 0.00 0.00 0.00 0.01 0.01 0.01 0.01 0.01 0.00 0.00 0.00 0.00 0.00 0.00 0.00 0.00 0.00 0.00 0.00 0.00 0.00 0.00 0.01
0.00 0.00 0.00 0.00 0.00 0.00 0.00 0.00 0.00 0.01 0.01 0.00 0.00 0.02 0.05 0.01 0.00 0.00 0.01 0.02 0.03 0.03 0.05 0.08 0.08 0.05 0.03 0.02 0.01 0.00 0.00 0.00 0.00 0.00 0.00 0.00 0.00 0.00 0.00 0.00 0.00 0.00 0.00 0.01
0.00 0.00 0.00 0.00 0.00 0.00 0.00 0.00 0.01 0.02 0.04 0.03 0.02 0.02 0.02 0.01 0.00 0.00 0.05 0.14 0.10 0.09 0.09 0.07 0.08 0.04 0.02 0.01 0.00 0.00 0.00 0.00 0.00 0.00 0.00 0.00 0.00 0.00 0.00 0.00 0.00 0.00 0.00 0.02
0.00 0.00 0.00 0.00 0.00 0.00 0.00 0.01 0.04 0.05 0.05 0.09 0.15 0.05 0.01 0.00 0.00 0.00 0.08 0.34 0.20 0.14 0.18 0.16 0.17 0.17 0.06 0.00 0.00 0.00 0.00 0.00 0.00 0.00 0.00 0.00 0.00 0.00 0.00 0.00 0.00 0.00 0.00 0.01
0.00 0.00 0.00 0.00 0.00 0.00 0.00 0.01 0.01 0.05 0.06 0.03 0.05 0.00 0.00 0.00 0.00 0.01 0.05 0.21 0.24 0.16 0.15 0.38 0.32 0.18 0.07 0.01 0.00 0.00 0.00 0.00 0.00 0.00 0.00 0.00 0.00 0.00 0.00 0.00 0.00 0.00 0.00 0.00
0.00 0.00 0.00 0.00 0.00 0.00 0.00 0.00 0.00 0.00 0.01 0.00 0.00 0.00 0.01 0.01 0.00 0.04 0.02 0.14 0.30 0.20 0.12 0.14 0.14 0.11 0.06 0.02 0.00 0.00 0.00 0.00 0.00 0.00 0.00 0.00 0.00 0.00 0.00 0.00 0.00 0.00 0.00 0.00
0.00 0.00 0.00 0.00 0.00 0.00 0.00 0.00 0.00 0.00 0.00 0.00 0.00 0.00 0.01 0.01 0.02 0.07 0.10 0.23 0.12 0.25 0.29 0.15 0.08 0.03 0.01 0.01 0.00 0.00 0.00 0.00 0.00 0.00 0.00 0.00 0.00 0.00 0.00 0.00 0.00 0.00 0.00 0.00
0.00 0.00 0.00 0.00 0.00 0.00 0.00 0.00 0.00 0.00 0.01 0.01 0.01 0.00 0.00 0.02 0.03 0.01 0.03 0.03 0.02 0.02 0.03 0.04 0.02 0.00 0.00 0.00 0.00 0.00 0.00 0.00 0.00 0.00 0.00 0.00 0.00 0.00 0.00 0.00 0.00 0.00 0.00 0.00
0.00 0.00 0.00 0.00 0.00 0.00 0.02 0.01 0.01 0.06 0.17 0.04 0.04 0.03 0.00 0.00 0.01 0.01 0.00 0.00 0.00 0.00 0.00 0.00 0.00 0.00 0.00 0.00 0.00 0.00 0.00 0.00 0.00 0.00 0.00 0.00 0.00 0.00 0.00 0.00 0.00 0.00 0.00 0.00
0.00 0.00 0.00 0.00 0.00 0.00 0.02 0.00 0.01 0.07 0.06 0.01 0.01 0.01 0.00 0.00 0.01 0.01 0.00 0.00 0.00 0.00 0.00 0.00 0.00 0.00 0.00 0.00 0.00 0.00 0.00 0.00 0.00 0.00 0.00 0.00 0.00 0.00 0.00 0.00 0.00 0.00 0.00 0.00
0.00 0.00 0.00 0.00 0.00 0.00 0.00 0.00 0.00 0.01 0.01 0.01 0.01 0.01 0.00 0.00 0.01 0.02 0.00 0.00 0.00 0.00 0.00 0.00 0.00 0.00 0.00 0.00 0.00 0.00 0.00 0.00 0.00 0.00 0.00 0.00 0.00 0.00 0.00 0.00 0.00 0.00 0.00 0.00
0.00 0.00 0.00 0.00 0.02 0.01 0.00 0.00 0.00 0.00 0.02 0.00 0.01 0.01 0.00 0.00 0.02 0.02 0.00 0.00 0.00 0.00 0.00 0.00 0.00 0.00 0.00 0.00 0.00 0.00 0.00 0.00 0.00 0.00 0.00 0.00 0.00 0.00 0.00 0.00 0.00 0.00 0.00 0.00
0.00 0.00 0.00 0.00 0.00 0.00 0.00 0.00 0.00 0.00 0.01 0.01 0.02 0.02 0.02 0.03 0.05 0.03 0.00 0.00 0.00 0.00 0.00 0.00 0.00 0.00 0.00 0.00 0.00 0.00 0.00 0.00 0.00 0.00 0.00 0.00 0.00 0.00 0.00 0.00 0.00 0.00 0.00 0.00
0.00 0.00 0.00 0.00 0.00 0.00 0.00 0.00 0.01 0.02 0.02 0.03 0.02 0.04 0.03 0.07 0.04 0.01 0.00 0.00 0.00 0.00 0.00 0.00 0.00 0.00 0.00 0.00 0.00 0.00 0.00 0.00 0.00 0.00 0.00 0.00 0.00 0.00 0.00 0.00 0.00 0.00 0.00 0.00
0.00 0.00 0.00 0.00 0.01 0.00 0.00 0.01 0.03 0.04 0.04 0.03 0.02 0.02 0.00 0.01 0.00 0.00 0.00 0.00 0.00 0.00 0.00 0.00 0.00 0.00 0.00 0.00 0.00 0.00 0.00 0.00 0.00 0.00 0.00 0.00 0.00 0.00 0.00 0.00 0.00 0.00 0.00 0.00
0.00 0.00 0.00 0.01 0.01 0.01 0.00 0.01 0.01 0.01 0.02 0.02 0.00 0.00 0.00 0.00 0.00 0.00 0.00 0.00 0.00 0.00 0.00 0.00 0.00 0.00 0.00 0.00 0.00 0.00 0.00 0.00 0.00 0.00 0.00 0.00 0.00 0.00 0.00 0.00 0.00 0.00 0.00 0.00
0.00 0.00 0.00 0.00 0.00 0.01 0.02 0.00 0.00 0.00 0.00 0.00 0.00 0.00 0.00 0.00 0.00 0.00 0.00 0.00 0.00 0.00 0.00 0.00 0.00 0.00 0.00 0.00 0.00 0.00 0.00 0.00 0.00 0.00 0.00 0.00 0.00 0.00 0.00 0.00 0.00 0.00 0.00 0.00
0.00 0.00 0.00 0.00 0.00 0.00 0.01 0.00 0.00 0.00 0.00 0.00 0.00 0.00 0.00 0.00 0.00 0.00 0.00 0.00 0.00 0.00 0.00 0.00 0.00 0.00 0.00 0.00 0.00 0.00 0.00 0.00 0.00 0.00 0.00 0.00 0.00 0.00 0.00 0.00 0.00 0.00 0.00 0.00
MSLP
1012.74 1013.27 1013.57 1013.65 1013.98 1013.76 1013.61 1013.28 1012.57 1011.94 1011.37 1011.02 1010.25 1008.27 1006.47 1006.76 1006.68 1006.32 1005.97 1005.69 1005.00 1004.22 1003.42 1003.10 1002.57 1002.06 1001.71 1001.35 1001.33 1001.89 1002.64 1003.10 1003.82 1004.78 1005.60 1006.32 1006.68 1007.24 1007.51 1007.90 1008.19 1008.82 1009.25 1009.61
1013.88 1013.81 1013.80 1013.80 1013.85 1013.93 1013.68 1013.31 1012.70 1011.79 1011.22 1011.19 1010.32 1008.43 1006.84 1006.70 1006.49 1005.94 1005.60 1005.25 1004.78 1004.06 1003.36 1002.72 1002.08 1002.10 1002.12 1002.08 1001.93 1000.73 1001.96 1002.47 1003.09 1003.82 1004.74 1005.39 1005.91 1006.33 1006.36 1007.42 1007.73 1008.01 1008.44 1008.84
1014.38 1013.87 1013.92 1014.07 1013.98 1014.01 1013.87 1013.56 1012.90 1012.35 1011.59 1011.00 1010.31 1008.22 1007.18 1006.46 1006.17 1005.88 1005.38 1004.79 1004.39 1004.08 1003.62 1002.75 1002.15 1002.36 1001.64 1002.25 1002.13 1001.21 1001.75 1002.34 1003.35 1003.81 1004.57 1005.33 1005.47 1006.14 1006.70 1007.15 1007.40 1007.63 1008.00 1008.39
1014.21 1014.13 1014.13 1013.91 1014.08 1014.20 1014.22 1013.90 1013.49 1013.01 1012.61 1012.03 1010.72 1009.22 1006.22 1006.64 1006.06 1005.96 1005.54 1005.12 1004.56 1003.96 1003.47 1002.89 1002.72 1002.51 1001.72 1002.48 1002.45 1002.45 1002.46 1002.75 1003.14 1003.56 1004.29 1004.87 1005.26 1005.81 1006.13 1006.29 1006.56 1006.91 1007.36 1007.86
1014.70 1014.66 1014.49 1014.53 1014.52 1014.26 1014.62 1014.25 1014.06 1013.58 1013.23 1012.61 1009.84 1010.96 1007.13 1007.08 1006.55 1006.49 1006.03 1005.08 1004.10 1003.61 1003.04 1002.39 1002.38 1001.93 1001.90 1002.00 1002.61 1003.15 1002.95 1002.88 1003.26 1003.50 1003.80 1004.76 1005.73 1006.09 1006.04 1006.04 1006.33 1006.61 1006.96 1007.21
1015.10 1014.81 1014.85 1014.98 1014.72 1014.71 1014.83 1014.59 1014.16 1013.72 1013.68 1013.04 1011.24 1011.55 1009.30 1008.39 1008.60 1007.51 1007.26 1006.54 1005.73 1004.67 1003.29 1002.21 1002.04 1001.94 1002.73 1001.73 1002.34 1003.43 1003.44 1003.73 1003.93 1004.44 1004.47 1004.32 1005.48 1006.01 1006.22 1006.23 1006.26 1006.39 1006.66 1006.81
1016.00 1015.76 1015.47 1015.38 1015.30 1015.12 1015.30 1015.54 1015.38 1014.95 1014.53 1013.30 1012.55 1011.98 1010.51 1010.02 1009.71 1009.76 1008.54 1007.24 1006.03 1004.65 1003.34 1002.40 1002.51 1002.58 1003.05 1003.01 1002.49 1003.01 1004.19 1005.09 1004.85 1004.96 1005.24 1005.00 1005.59 1006.27 1006.43 1006.26 1006.24 1006.35 1006.58 1006.59
1017.44 1016.76 1016.24 1016.02 1016.22 1016.32 1016.60 1016.74 1017.42 1016.93 1016.13 1015.21 1014.44 1012.60 1010.58 1010.67 1010.22 1010.15 1009.30 1008.03 1006.40 1004.83 1003.28 1001.93 1002.14 1002.53 1002.80 1003.17 1003.24 1003.61 1003.80 1004.60 1005.68 1005.17 1004.95 1004.69 1005.69 1006.20 1006.43 1006.24 1006.10 1006.06 1006.20 1006.14
1018.32 1017.61 1016.67 1016.59 1016.63 1016.92 1016.92 1017.36 1017.51 1017.54 1017.00 1016.06 1014.25 1012.32 1010.96 1010.63 1010.56 1010.27 1009.66 1008.56 1007.43 1006.11 1004.88 1002.34 1002.18 1002.81 1003.41 1003.97 1004.21 1004.38 1004.44 1005.09 1005.47 1005.63 1005.76 1005.90 1006.48 1006.53 1006.61 1006.23 1005.93 1005.71 1005.66 1005.62
1018.88 1018.28 1017.47 1017.15 1016.85 1016.89 1017.38 1017.73 1017.91 1018.14 1017.77 1016.29 1014.18 1013.08 1012.26 1011.88 1011.54 1011.13 1010.72 1009.84 1008.36 1007.36 1006.44 1004.53 1004.32 1004.43 1004.53 1004.57 1005.31 1005.65 1004.92 1005.86 1007.11 1007.52 1007.05 1006.85 1006.67 1006.60 1006.50 1006.18 1005.95 1005.66 1005.44 1005.31
1019.26 1019.20 1018.33 1017.69 1017.61 1017.76 1017.80 1017.97 1018.29 1018.03 1017.66 1016.74 1015.12 1013.54 1012.79 1012.50 1012.11 1011.52 1010.98 1010.48 1009.42 1008.78 1007.72 1006.59 1005.84 1005.34 1006.04 1006.43 1006.20 1006.44 1006.04 1007.08 1008.81 1009.08 1008.18 1007.35 1006.78 1007.12 1007.15 1007.00 1006.40 1005.86 1005.41 1005.06
1019.40 1019.44 1019.12 1018.62 1017.67 1017.81 1017.92 1018.48 1018.82 1018.62 1017.90 1017.05 1015.86 1014.08 1013.19 1012.96 1012.51 1011.77 1011.28 1010.43 1009.41 1008.71 1008.70 1007.97 1006.77 1006.57 1007.78 1008.03 1007.99 1008.03 1007.62 1009.40 1009.15 1008.91 1008.74 1007.86 1007.42 1007.41 1007.44 1006.89 1006.52 1006.24 1005.58 1005.05
1019.56 1019.89 1020.24 1019.07 1018.49 1018.34 1018.41 1018.16 1018.07 1018.31 1018.02 1016.83 1016.14 1014.18 1013.70 1013.10 1012.68 1012.21 1011.50 1010.73 1009.89 1010.01 1009.34 1009.08 1008.90 1008.97 1009.26 1009.78 1010.29 1010.16 1009.53 1009.86 1009.44 1009.91 1009.06 1008.23 1007.92 1007.84 1007.71 1007.09 1006.73 1006.26 1005.66 1005.21
1019.76 1020.35 1020.66 1020.38 1019.41 1019.09 1018.75 1018.05 1017.75 1017.80 1017.51 1016.52 1015.39 1014.45 1014.26 1013.73 1013.27 1012.57 1012.08 1011.55 1011.54 1011.29 1010.84 1009.94 1010.31 1009.94 1010.83 1011.08 1010.91 1010.99 1010.24 1010.49 1010.72 1010.26 1009.86 1009.16 1008.93 1008.45 1007.75 1007.43 1006.93 1006.66 1006.18 1005.55
1020.38 1020.61 1020.45 1019.67 1019.21 1018.90 1018.56 1018.53 1018.01 1017.53 1017.20 1016.80 1015.56 1015.36 1015.16 1014.56 1013.73 1013.29 1012.90 1012.75 1012.50 1012.39 1012.52 1012.41 1012.14 1012.17 1011.59 1011.27 1011.53 1011.04 1011.63 1011.90 1011.21 1011.05 1010.82 1009.95 1009.10 1008.60 1008.05 1007.56 1007.11 1006.64 1006.13 1005.60
1020.69 1020.79 1020.39 1019.44 1018.58 1018.59 1018.58 1018.72 1018.32 1017.76 1017.28 1016.79 1016.27 1015.85 1015.99 1015.32 1014.62 1014.40 1014.25 1014.05 1013.88 1013.59 1013.21 1012.97 1013.03 1013.01 1012.73 1012.97 1013.03 1012.83 1012.67 1012.39 1012.06 1012.10 1011.47 1010.29 1009.74 1009.23 1008.57 1007.81 1007.19 1006.46 1005.96 1005.61
1021.14 1021.09 1020.62 1019.37 1018.60 1018.45 1018.87 1019.09 1018.62 1018.41 1018.32 1017.69 1017.52 1017.36 1016.66 1016.08 1015.62 1015.58 1015.46 1015.59 1015.36 1015.56 1015.43 1015.27 1015.05 1015.03 1014.77 1014.50 1013.89 1013.64 1013.33 1012.96 1013.09 1012.32 1011.59 1011.01 1010.53 1009.67 1008.72 1008.04 1007.26 1006.69 1006.19 1005.66
1021.12 1021.26 1020.91 1019.93 1019.12 1018.97 1019.08 1019.01 1018.94 1018.98 1019.23 1018.91 1018.60 1018.01 1017.46 1016.96 1016.74 1016.82 1016.73 1016.59 1016.83 1016.92 1016.86 1016.75 1016.75 1016.25 1015.87 1015.52 1015.16 1014.54 1014.15 1013.86 1013.65 1012.81 1011.97 1011.39 1010.88 1009.75 1008.78 1008.04 1007.40 1006.92 1006.40 1005.71
1021.25 1021.44 1021.19 1020.98 1020.25 1019.75 1019.32 1019.42 1019.50 1019.39 1019.59 1019.73 1019.27 1018.68 1018.13 1017.35 1016.36 1017.36 1017.89 1018.09 1018.51 1018.69 1018.47 1017.90 1017.25 1016.75 1016.48 1016.31 1015.93 1015.31 1014.76 1014.43 1013.73 1013.03 1012.61 1012.18 1011.08 1009.92 1008.90 1008.07 1007.43 1006.95 1006.32 1005.68
1021.33 1021.68 1022.19 1021.70 1021.23 1020.52 1020.27 1019.57 1019.28 1018.77 1019.82 1020.01 1019.64 1019.20 1018.74 1018.02 1017.85 1018.41 1018.78 1019.13 1019.40 1019.43 1019.10 1018.87 1018.48 1017.98 1017.43 1016.87 1016.40 1015.79 1015.36 1014.76 1014.19 1013.46 1013.14 1012.16 1010.84 1009.69 1008.93 1008.14 1007.40 1006.94 1006.35 1005.57
1022.56 1022.78 1023.26 1022.85 1022.32 1021.34 1020.83 1020.10 1019.30 1019.92 1021.07 1020.41 1020.32 1020.04 1019.85 1019.60 1019.83 1019.56 1019.50 1019.73 1019.90 1019.74 1019.47 1019.21 1018.87 1018.53 1018.11 1017.51 1017.12 1016.49 1016.06 1015.32 1014.72 1013.64 1012.92 1011.85 1010.78 1009.91 1008.95 1008.40 1007.68 1006.71 1006.21 1005.43
1023.47 1023.65 1023.45 1023.04 1022.80 1022.12 1021.26 1020.35 1020.61 1021.29 1020.89 1020.80 1020.67 1020.54 1020.36 1020.18 1019.93 1019.83 1019.66 1019.41 1019.47 1019.30 1018.86 1018.79 1018.52 1018.32 1018.18 1017.86 1017.13 1016.54 1015.71 1015.14 1014.08 1013.24 1012.68 1011.75 1010.78 1009.91 1009.03 1008.60 1007.60 1006.82 1006.30 1005.48
1023.27 1022.89 1023.02 1022.93 1022.45 1021.91 1021.64 1021.67 1021.66 1021.45 1021.24 1020.90 1020.90 1020.85 1020.90 1020.72 1020.66 1020.69 1020.45 1020.45 1020.47 1020.13 1019.82 1019.41 1018.95 1018.46 1018.02 1017.80 1017.22 1016.21 1015.45 1014.87 1013.91 1013.20 1012.47 1011.61 1010.93 1010.24 1009.57 1008.86 1008.16 1007.11 1006.51 1005.85
1022.22 1022.19 1022.54 1022.54 1022.17 1021.83 1021.87 1021.75 1021.82 1021.65 1021.50 1021.26 1021.15 1021.20 1021.30 1021.34 1021.16 1021.13 1020.94 1020.83 1020.53 1020.14 1020.11 1019.96 1019.46 1018.73 1018.26 1017.88 1017.23 1016.74 1015.72 1014.86 1013.83 1013.03 1012.68 1012.06 1011.29 1010.68 1010.27 1009.57 1008.87 1008.02 1007.35 1006.55
1021.88 1021.85 1021.90 1021.90 1021.85 1021.73 1021.77 1021.73 1021.69 1021.61 1021.67 1021.66 1021.59 1021.69 1021.84 1021.81 1021.63 1021.58 1021.44 1021.44 1021.47 1021.38 1021.13 1020.69 1020.26 1019.57 1019.01 1018.10 1017.41 1016.94 1016.29 1015.14 1014.40 1014.11 1013.56 1012.92 1012.22 1011.88 1011.27 1010.63 1009.85 1008.96 1007.94 1006.77
1021.00 1020.92 1021.33 1021.47 1021.50 1021.75 1021.73 1021.68 1021.47 1021.75 1022.11 1022.28 1022.37 1022.41 1022.47 1022.48 1022.31 1022.12 1021.97 1021.90 1021.90 1021.63 1021.26 1020.73 1020.29 1019.78 1019.24 1018.56 1017.71 1016.90 1016.23 1015.85 1015.59 1014.77 1014.17 1013.92 1013.60 1012.99 1012.15 1011.25 1010.08 1009.11 1007.99 1006.50
Thickness
5595 5585 5577 5580 5579 5585 5583 5581 5585 5594 5595 5591 5595 5621 5649 5643 5634 5635 5639 5643 5648 5658 5672 5675 5680 5686 5691 5698 5698 5696 5694 5696 5693 5688 5684 5681 5682 5677 5676 5674 5671 5668 5667 5666
5570 5567 5576 5575 5575 5572 5572 5571 5575 5587 5591 5577 5584 5606 5633 5635 5627 5630 5634 5637 5638 5645 5655 5661 5670 5674 5674 5677 5680 5698 5693 5690 5687 5684 5679 5676 5678 5676 5677 5669 5668 5666 5665 5664
5560 5564 5567 5566 5561 5560 5559 5561 5567 5571 5578 5579 5575 5597 5613 5626 5624 5625 5627 5632 5637 5636 5638 5644 5658 5654 5665 5664 5668 5682 5682 5677 5672 5671 5667 5664 5668 5666 5664 5662 5660 5659 5660 5658
5554 5558 5556 5553 5551 5548 5546 5551 5552 5552 5550 5546 5572 5556 5616 5610 5612 5612 5612 5612 5615 5617 5620 5629 5637 5642 5654 5652 5655 5658 5663 5664 5663 5661 5658 5656 5656 5655 5658 5660 5658 5655 5655 5655
5543 5544 5541 5539 5538 5540 5536 5537 5538 5540 5534 5536 5581 5520 5592 5597 5597 5590 5590 5600 5610 5611 5615 5626 5631 5639 5642 5645 5643 5642 5648 5651 5650 5650 5649 5643 5638 5641 5646 5651 5651 5651 5648 5652
5539 5540 5534 5530 5530 5527 5523 5521 5524 5529 5521 5510 5558 5516 5554 5574 5554 5565 5563 5571 5579 5589 5600 5615 5624 5628 5624 5636 5634 5629 5633 5632 5632 5630 5633 5637 5629 5628 5632 5637 5643 5643 5640 5644
5516 5518 5517 5514 5505 5507 5502 5492 5482 5486 5493 5512 5522 5505 5526 5522 5526 5516 5534 5549 5562 5573 5587 5600 5606 5611 5610 5613 5623 5622 5613 5606 5612 5614 5615 5622 5619 5615 5619 5625 5631 5634 5632 5635
5486 5490 5495 5500 5493 5485 5479 5478 5436 5432 5466 5468 5492 5478 5517 5505 5507 5505 5512 5525 5541 5554 5573 5589 5600 5601 5602 5601 5606 5607 5605 5602 5596 5604 5608 5612 5606 5605 5608 5615 5621 5626 5627 5631
5470 5476 5484 5485 5477 5471 5471 5453 5461 5425 5446 5437 5462 5483 5498 5493 5489 5488 5496 5505 5518 5532 5545 5578 5587 5585 5584 5582 5585 5589 5589 5590 5589 5590 5591 5592 5589 5592 5597 5606 5613 5619 5623 5626
5467 5460 5473 5468 5462 5458 5447 5444 5423 5408 5388 5417 5437 5451 5446 5468 5469 5471 5471 5478 5500 5515 5526 5549 5557 5558 5562 5567 5566 5567 5577 5573 5565 5564 5572 5575 5578 5583 5587 5595 5603 5609 5615 5619
5446 5442 5450 5451 5437 5427 5420 5417 5412 5414 5410 5431 5440 5440 5457 5457 5459 5463 5466 5471 5485 5494 5509 5529 5539 5544 5541 5542 5550 5552 5559 5553 5539 5542 5555 5563 5571 5569 5572 5577 5586 5597 5605 5612
5440 5427 5420 5423 5430 5427 5427 5410 5396 5383 5391 5418 5425 5447 5451 5449 5444 5456 5460 5473 5488 5493 5500 5512 5526 5529 5521 5521 5525 5528 5536 5523 5530 5536 5542 5552 5559 5560 5562 5568 5575 5582 5593 5602
5427 5407 5381 5419 5418 5423 5418 5427 5427 5410 5405 5416 5415 5447 5442 5442 5447 5450 5460 5466 5477 5477 5478 5489 5497 5501 5501 5497 5496 5503 5512 5514 5522 5521 5530 5542 5547 5549 5551 5557 5561 5570 5581 5588
5415 5399 5400 5394 5406 5400 5399 5413 5425 5424 5411 5429 5436 5434 5433 5439 5442 5449 5454 5461 5456 5457 5464 5474 5468 5474 5472 5474 5481 5487 5499 5501 5504 5511 5516 5526 5530 5535 5541 5544 5551 5556 5563 5573
5402 5386 5396 5407 5409 5409 5408 5406 5408 5414 5419 5415 5433 5419 5422 5430 5442 5443 5446 5445 5449 5445 5441 5446 5453 5453 5460 5466 5468 5478 5479 5481 5490 5496 5502 5513 5521 5525 5529 5534 5539 5545 5553 5562
5395 5378 5388 5400 5411 5409 5409 5396 5400 5409 5417 5419 5421 5425 5415 5424 5432 5429 5430 5433 5435 5437 5441 5442 5438 5438 5444 5446 5451 5457 5462 5469 5477 5481 5489 5502 5507 5512 5518 5527 5533 5539 5544 5550
5387 5388 5397 5406 5413 5411 5404 5387 5396 5401 5391 5398 5403 5398 5403 5410 5417 5413 5413 5414 5421 5420 5420 5419 5421 5421 5426 5432 5441 5447 5451 5458 5461 5471 5480 5487 5492 5501 5510 5517 5525 5531 5534 5539
5390 5389 5393 5401 5408 5397 5392 5400 5397 5388 5379 5385 5387 5392 5395 5399 5403 5400 5402 5405 5403 5403 5404 5406 5406 5410 5413 5419 5425 5433 5439 5443 5449 5459 5468 5473 5480 5490 5501 5508 5514 5519 5523 5529
5385 5388 5396 5376 5396 5404 5402 5391 5384 5383 5383 5374 5379 5383 5384 5392 5406 5388 5388 5389 5385 5383 5388 5393 5399 5404 5407 5410 5414 5422 5427 5431 5440 5448 5452 5456 5467 5480 5491 5499 5504 5508 5514 5519
5390 5382 5364 5385 5394 5391 5381 5384 5385 5392 5384 5369 5374 5375 5377 5385 5386 5381 5374 5375 5372 5373 5377 5380 5385 5390 5397 5401 5406 5412 5416 5421 5426 5433 5436 5447 5461 5473 5480 5488 5496 5498 5503 5510
5359 5350 5342 5360 5327 5360 5375 5375 5386 5382 5358 5364 5365 5365 5363 5365 5363 5365 5365 5363 5363 5366 5368 5371 5374 5378 5382 5389 5392 5398 5401 5408 5413 5423 5429 5440 5451 5458 5467 5472 5479 5488 5491 5502
5359 5354 5336 5347 5319 5349 5371 5381 5371 5363 5362 5361 5360 5360 5359 5360 5359 5359 5362 5364 5365 5366 5371 5372 5373 5374 5374 5375 5380 5385 5393 5399 5408 5414 5417 5424 5433 5442 5450 5455 5464 5473 5478 5487
5348 5352 5350 5361 5361 5366 5368 5362 5360 5359 5360 5361 5359 5359 5356 5357 5355 5352 5355 5356 5356 5359 5360 5364 5366 5368 5370 5370 5373 5380 5385 5388 5395 5401 5405 5411 5417 5423 5429 5436 5444 5454 5461 5468
5366 5379 5370 5357 5364 5368 5359 5362 5356 5356 5357 5360 5360 5357 5354 5352 5353 5351 5353 5351 5352 5355 5353 5353 5356 5359 5361 5363 5367 5368 5375 5378 5384 5389 5389 5393 5399 5404 5407 5414 5422 5431 5438 5446
5358 5375 5367 5353 5366 5364 5363 5358 5358 5358 5358 5356 5354 5352 5348 5347 5349 5347 5346 5343 5341 5340 5339 5340 5342 5347 5348 5353 5356 5356 5358 5365 5367 5367 5368 5371 5376 5377 5382 5388 5395 5404 5416 5429
5372 5373 5354 5347 5360 5355 5360 5358 5362 5357 5351 5348 5345 5343 5341 5339 5340 5340 5340 5339 5335 5335 5336 5337 5338 5339 5340 5341 5345 5347 5349 5347 5345 5348 5350 5348 5348 5351 5359 5365 5375 5384 5397 5414